Time,TemperatureF,DewpointF,PressureIn,WindDirection,WindDirectionDegrees,WindSpeedMPH,WindSpeedGustMPH,Humidity,HourlyPrecipIn,Conditions,Clouds,dailyrainin,SoftwareType,DateUTC
2013-05-24 00:01:00,61.3,61.3,28.33,SSW,213,1.2,0.0,100,0.00,CLR,CLR,0.00,WeatherDisplay:10.37,2013-05-24 04:01:00,
2013-05-24 00:02:00,61.3,61.3,28.33,SSW,213,1.2,1.2,100,0.00,CLR,CLR,0.00,WeatherDisplay:10.37,2013-05-24 04:02:00,
2013-05-24 00:03:00,61.3,61.3,28.33,SSW,213,1.2,1.2,100,0.00,CLR,CLR,0.00,WeatherDisplay:10.37,2013-05-24 04:03:00,
2013-05-24 00:08:00,61.3,61.3,28.33,SSW,213,0.0,0.0,100,0.00,CLR,CLR,0.00,WeatherDisplay:10.37,2013-05-24 04:08:00,
2013-05-24 00:13:00,61.1,61.1,28.33,SW,217,3.5,3.5,100,0.00,CLR,CLR,0.00,WeatherDisplay:10.37,2013-05-24 04:13:00,
2013-05-24 00:19:00,61.0,61.0,28.33,West,271,4.6,4.6,100,0.00,CLR,CLR,0.00,WeatherDisplay:10.37,2013-05-24 04:19:00,
2013-05-24 00:24:00,61.1,61.1,28.33,NW,306,3.5,3.5,100,0.00,CLR,CLR,0.00,WeatherDisplay:10.37,2013-05-24 04:24:00,
2013-05-24 00:29:00,61.0,61.0,28.33,WSW,239,3.5,3.5,100,0.00,CLR,CLR,0.00,WeatherDisplay:10.37,2013-05-24 04:29:00,
2013-05-24 00:34:00,61.0,61.0,28.33,SSW,205,2.3,2.3,100,0.00,CLR,CLR,0.00,WeatherDisplay:10.37,2013-05-24 04:34:00,
2013-05-24 00:39:00,61.0,61.0,28.33,WNW,285,8.0,8.0,100,0.00,CLR,CLR,0.00,WeatherDisplay:10.37,2013-05-24 04:39:00,
2013-05-24 00:44:00,61.1,61.1,28.33,SSW,205,2.3,2.3,100,0.00,CLR,CLR,0.00,WeatherDisplay:10.37,2013-05-24 04:44:00,
2013-05-24 00:49:00,61.1,61.1,28.33,SSW,199,1.0,1.0,100,0.00,CLR,CLR,0.00,WeatherDisplay:10.37,2013-05-24 04:49:00,
2013-05-24 00:54:00,61.1,61.1,28.33,SSW,199,2.3,2.3,100,0.00,CLR,CLR,0.00,WeatherDisplay:10.37,2013-05-24 04:54:00,
2013-05-24 00:59:00,61.0,61.0,28.33,SSE,167,3.5,3.5,100,0.00,CLR,CLR,0.00,WeatherDisplay:10.37,2013-05-24 04:59:00,
2013-05-24 01:05:00,61.0,61.0,28.33,SSW,213,2.3,2.3,100,0.00,CLR,CLR,0.00,WeatherDisplay:10.37,2013-05-24 05:05:00,
2013-05-24 01:10:00,61.1,61.1,28.33,SSW,195,3.5,3.5,100,0.00,CLR,CLR,0.00,WeatherDisplay:10.37,2013-05-24 05:10:00,
2013-05-24 01:15:00,61.2,61.2,28.33,South,186,3.5,3.5,100,0.00,CLR,CLR,0.00,WeatherDisplay:10.37,2013-05-24 05:15:00,
2013-05-24 01:20:00,61.4,61.4,28.33,South,178,4.0,4.0,100,0.00,CLR,CLR,0.00,WeatherDisplay:10.37,2013-05-24 05:20:00,
2013-05-24 01:25:00,61.3,61.3,28.33,South,175,4.0,4.0,100,0.00,CLR,CLR,0.00,WeatherDisplay:10.37,2013-05-24 05:25:00,
2013-05-24 01:30:00,61.1,60.8,28.34,South,172,4.6,4.6,99,0.00,CLR,CLR,0.00,WeatherDisplay:10.37,2013-05-24 05:30:00,
2013-05-24 01:36:00,61.1,60.8,28.34,South,174,3.5,3.5,99,0.00,CLR,CLR,0.00,WeatherDisplay:10.37,2013-05-24 05:36:00,
2013-05-24 01:41:00,61.0,60.4,28.33,South,173,3.5,3.5,98,0.00,CLR,CLR,0.00,WeatherDisplay:10.37,2013-05-24 05:41:00,
2013-05-24 01:46:00,61.0,60.4,28.33,South,173,3.5,3.5,98,0.00,CLR,CLR,0.00,WeatherDisplay:10.37,2013-05-24 05:46:00,
2013-05-24 01:51:00,60.9,60.3,28.33,SSW,202,3.5,3.5,98,0.00,CLR,CLR,0.00,WeatherDisplay:10.37,2013-05-24 05:51:00,
2013-05-24 01:56:00,61.0,60.1,28.33,SW,234,2.3,2.3,97,0.00,CLR,CLR,0.00,WeatherDisplay:10.37,2013-05-24 05:56:00,
2013-05-24 02:01:00,61.0,60.1,28.32,SW,235,3.5,3.5,97,0.00,CLR,CLR,0.00,WeatherDisplay:10.37,2013-05-24 06:01:00,
2013-05-24 02:06:00,60.9,60.3,28.33,SW,234,1.2,1.2,98,0.00,CLR,CLR,0.00,WeatherDisplay:10.37,2013-05-24 06:06:00,
2013-05-24 02:12:00,60.8,59.9,28.32,WSW,239,3.5,3.5,97,0.00,CLR,CLR,0.00,WeatherDisplay:10.37,2013-05-24 06:12:00,
2013-05-24 02:17:00,60.8,60.2,28.32,WSW,237,2.3,2.3,98,0.00,CLR,CLR,0.00,WeatherDisplay:10.37,2013-05-24 06:17:00,
2013-05-24 02:22:00,60.7,59.3,28.32,WSW,237,1.2,0.0,95,0.00,CLR,CLR,0.00,WeatherDisplay:10.37,2013-05-24 06:22:00,
2013-05-24 02:27:00,60.6,59.2,28.31,WSW,237,3.5,3.5,95,0.00,CLR,CLR,0.00,WeatherDisplay:10.37,2013-05-24 06:27:00,
2013-05-24 02:32:00,60.5,59.4,28.31,SW,234,2.3,2.3,96,0.00,CLR,CLR,0.00,WeatherDisplay:10.37,2013-05-24 06:32:00,
2013-05-24 02:37:00,60.5,59.6,28.32,SW,234,3.5,3.5,97,0.00,CLR,CLR,0.00,WeatherDisplay:10.37,2013-05-24 06:37:00,
2013-05-24 02:42:00,60.4,59.3,28.32,South,173,3.5,3.5,96,0.00,CLR,CLR,0.00,WeatherDisplay:10.37,2013-05-24 06:42:00,
2013-05-24 02:48:00,60.3,58.9,28.31,South,176,3.5,3.5,95,0.00,CLR,CLR,0.00,WeatherDisplay:10.37,2013-05-24 06:48:00,
2013-05-24 02:53:00,60.2,59.1,28.31,South,176,3.5,3.5,96,0.00,CLR,CLR,0.00,WeatherDisplay:10.37,2013-05-24 06:53:00,
2013-05-24 02:58:00,60.1,58.7,28.31,South,176,2.3,2.3,95,0.00,CLR,CLR,0.00,WeatherDisplay:10.37,2013-05-24 06:58:00,
2013-05-24 03:03:00,60.1,58.4,28.31,South,177,2.3,2.3,94,0.00,CLR,CLR,0.00,WeatherDisplay:10.37,2013-05-24 07:03:00,
2013-05-24 03:08:00,59.9,58.8,28.30,South,177,1.0,1.0,96,0.00,CLR,CLR,0.00,WeatherDisplay:10.37,2013-05-24 07:08:00,
2013-05-24 03:14:00,59.8,58.9,28.30,South,177,2.3,2.3,97,0.01,RA,RA,0.01,WeatherDisplay:10.37,2013-05-24 07:14:00,
2013-05-24 03:19:00,59.7,58.6,28.30,South,177,2.3,2.3,96,0.01,RA,RA,0.01,WeatherDisplay:10.37,2013-05-24 07:19:00,
2013-05-24 03:24:00,59.6,58.7,28.30,South,177,3.5,3.5,97,0.01,CLR,CLR,0.01,WeatherDisplay:10.37,2013-05-24 07:24:00,
2013-05-24 03:29:00,59.6,58.7,28.31,South,177,3.5,3.5,97,0.01,CLR,CLR,0.01,WeatherDisplay:10.37,2013-05-24 07:29:00,
2013-05-24 03:34:00,59.5,58.6,28.31,South,177,3.5,3.5,97,0.01,CLR,CLR,0.01,WeatherDisplay:10.37,2013-05-24 07:34:00,
2013-05-24 03:40:00,59.4,58.8,28.31,SW,218,3.5,3.5,98,0.01,CLR,CLR,0.01,WeatherDisplay:10.37,2013-05-24 07:40:00,
2013-05-24 03:45:00,59.3,58.7,28.30,WSW,253,4.0,4.0,98,0.01,CLR,CLR,0.01,WeatherDisplay:10.37,2013-05-24 07:45:00,
2013-05-24 03:50:00,59.3,58.7,28.31,WSW,242,4.6,4.6,98,0.01,CLR,CLR,0.01,WeatherDisplay:10.37,2013-05-24 07:50:00,
2013-05-24 03:55:00,59.3,58.7,28.31,WSW,243,3.5,3.5,98,0.01,CLR,CLR,0.01,WeatherDisplay:10.37,2013-05-24 07:55:00,
2013-05-24 04:00:00,59.2,58.6,28.31,WSW,251,3.5,3.5,98,0.01,CLR,CLR,0.01,WeatherDisplay:10.37,2013-05-24 08:00:00,
2013-05-24 04:05:00,59.2,58.6,28.31,WSW,251,3.5,3.5,98,0.01,CLR,CLR,0.01,WeatherDisplay:10.37,2013-05-24 08:05:00,
2013-05-24 04:10:00,59.3,58.4,28.31,WSW,240,2.3,2.3,97,0.01,CLR,CLR,0.01,WeatherDisplay:10.37,2013-05-24 08:10:00,
2013-05-24 04:16:00,59.2,58.6,28.31,South,185,3.5,3.5,98,0.00,CLR,CLR,0.01,WeatherDisplay:10.37,2013-05-24 08:16:00,
2013-05-24 04:21:00,59.2,58.3,28.31,SW,220,5.8,5.8,97,0.00,CLR,CLR,0.01,WeatherDisplay:10.37,2013-05-24 08:21:00,
2013-05-24 04:26:00,59.1,58.5,28.31,SW,216,3.5,3.5,98,0.00,CLR,CLR,0.01,WeatherDisplay:10.37,2013-05-24 08:26:00,
2013-05-24 04:31:00,58.9,58.3,28.31,WSW,238,3.5,3.5,98,0.00,CLR,CLR,0.01,WeatherDisplay:10.37,2013-05-24 08:31:00,
2013-05-24 04:36:00,58.8,58.2,28.31,SSE,166,4.6,4.6,98,0.00,CLR,CLR,0.01,WeatherDisplay:10.37,2013-05-24 08:36:00,
2013-05-24 04:41:00,58.8,58.0,28.31,SSW,197,5.8,5.8,97,0.00,CLR,CLR,0.01,WeatherDisplay:10.37,2013-05-24 08:41:00,
2013-05-24 04:46:00,58.8,58.0,28.31,SSE,161,4.6,4.6,97,0.00,CLR,CLR,0.01,WeatherDisplay:10.37,2013-05-24 08:46:00,
2013-05-24 04:51:00,58.6,58.0,28.31,South,170,1.2,0.0,98,0.00,CLR,CLR,0.01,WeatherDisplay:10.37,2013-05-24 08:51:00,
2013-05-24 04:57:00,58.5,57.7,28.31,South,181,4.6,4.6,97,0.00,CLR,CLR,0.01,WeatherDisplay:10.37,2013-05-24 08:57:00,
2013-05-24 05:02:00,58.6,57.5,28.31,South,188,3.5,3.5,96,0.00,CLR,CLR,0.01,WeatherDisplay:10.37,2013-05-24 09:02:00,
2013-05-24 05:07:00,58.6,57.5,28.31,SW,222,3.5,3.5,96,0.00,CLR,CLR,0.01,WeatherDisplay:10.37,2013-05-24 09:07:00,
2013-05-24 05:12:00,58.5,57.4,28.31,SSE,168,2.3,2.3,96,0.00,CLR,CLR,0.01,WeatherDisplay:10.37,2013-05-24 09:12:00,
2013-05-24 05:17:00,58.3,57.5,28.31,South,181,2.3,2.3,97,0.00,CLR,CLR,0.01,WeatherDisplay:10.37,2013-05-24 09:17:00,
2013-05-24 05:22:00,58.3,57.5,28.31,SW,233,5.8,5.8,97,0.00,CLR,CLR,0.01,WeatherDisplay:10.37,2013-05-24 09:22:00,
2013-05-24 05:28:00,58.2,57.4,28.31,SW,233,3.5,3.5,97,0.00,CLR,CLR,0.01,WeatherDisplay:10.37,2013-05-24 09:28:00,
2013-05-24 05:33:00,58.0,57.2,28.32,SW,233,1.0,1.0,97,0.00,CLR,CLR,0.01,WeatherDisplay:10.37,2013-05-24 09:33:00,
2013-05-24 05:38:00,58.0,57.2,28.32,SSW,203,3.5,3.5,97,0.00,CLR,CLR,0.01,WeatherDisplay:10.37,2013-05-24 09:38:00,
2013-05-24 05:43:00,58.1,57.3,28.32,NW,317,5.0,5.0,97,0.00,CLR,CLR,0.01,WeatherDisplay:10.37,2013-05-24 09:43:00,
2013-05-24 05:48:00,58.3,57.2,28.32,NW,314,3.5,3.5,96,0.00,CLR,CLR,0.01,WeatherDisplay:10.37,2013-05-24 09:48:00,
2013-05-24 06:15:00,58.1,56.4,28.47,SSW,194,3.5,3.5,94,0.00,CLR,CLR,0.01,WeatherDisplay:10.37,2013-05-24 10:15:00,
2013-05-24 06:20:00,58.1,56.4,28.47,SSW,194,2.3,2.3,94,0.00,CLR,CLR,0.01,WeatherDisplay:10.37,2013-05-24 10:20:00,
2013-05-24 06:26:00,58.1,56.1,28.40,SSW,195,0.0,0.0,93,0.00,CLR,CLR,0.01,WeatherDisplay:10.37,2013-05-24 10:26:00,
2013-05-24 06:31:00,58.2,56.2,28.42,WSW,247,1.2,1.2,93,0.00,CLR,CLR,0.01,WeatherDisplay:10.37,2013-05-24 10:31:00,
2013-05-24 06:36:00,58.3,56.6,28.47,SSE,150,5.8,5.8,94,0.00,CLR,CLR,0.01,WeatherDisplay:10.37,2013-05-24 10:36:00,
2013-05-24 06:41:00,58.7,57.0,28.45,SSE,168,4.6,4.6,94,0.00,CLR,CLR,0.01,WeatherDisplay:10.37,2013-05-24 10:41:00,
2013-05-24 06:46:00,58.9,57.2,28.46,SSW,197,2.3,2.3,94,0.00,CLR,CLR,0.01,WeatherDisplay:10.37,2013-05-24 10:46:00,
2013-05-24 06:51:00,58.8,57.1,28.44,WSW,250,5.0,5.0,94,0.00,CLR,CLR,0.01,WeatherDisplay:10.37,2013-05-24 10:51:00,
2013-05-24 06:56:00,59.0,56.7,28.46,NW,318,5.8,5.8,92,0.00,CLR,CLR,0.01,WeatherDisplay:10.37,2013-05-24 10:56:00,
2013-05-24 07:02:00,59.2,56.9,28.45,West,277,8.1,8.1,92,0.00,CLR,CLR,0.01,WeatherDisplay:10.37,2013-05-24 11:02:00,
2013-05-24 07:07:00,59.3,56.7,28.45,West,261,9.2,9.2,91,0.00,CLR,CLR,0.01,WeatherDisplay:10.37,2013-05-24 11:07:00,
2013-05-24 07:12:00,59.4,57.1,28.45,WSW,242,3.5,3.5,92,0.00,CLR,CLR,0.01,WeatherDisplay:10.37,2013-05-24 11:12:00,
2013-05-24 07:17:00,59.4,57.1,28.47,NW,323,12.0,12.0,92,0.00,CLR,CLR,0.01,WeatherDisplay:10.37,2013-05-24 11:17:00,
2013-05-24 07:22:00,59.5,56.9,28.46,West,273,4.6,4.6,91,0.00,CLR,CLR,0.01,WeatherDisplay:10.37,2013-05-24 11:22:00,
2013-05-24 07:27:00,59.8,57.5,28.48,West,271,3.5,3.5,92,0.00,CLR,CLR,0.01,WeatherDisplay:10.37,2013-05-24 11:27:00,
2013-05-24 07:32:00,60.2,57.6,28.45,West,266,3.5,3.5,91,0.00,CLR,CLR,0.01,WeatherDisplay:10.37,2013-05-24 11:32:00,
2013-05-24 07:38:00,60.6,58.3,28.46,West,270,5.0,5.0,92,0.00,CLR,CLR,0.01,WeatherDisplay:10.37,2013-05-24 11:38:00,
2013-05-24 07:43:00,60.8,57.8,28.47,WNW,303,4.6,4.6,90,0.00,CLR,CLR,0.01,WeatherDisplay:10.37,2013-05-24 11:43:00,
2013-05-24 07:48:00,61.1,58.5,28.47,NW,307,5.0,5.0,91,0.00,CLR,CLR,0.01,WeatherDisplay:10.37,2013-05-24 11:48:00,
2013-05-24 07:53:00,61.3,57.7,28.49,NW,324,10.4,10.4,88,0.00,CLR,CLR,0.01,WeatherDisplay:10.37,2013-05-24 11:53:00,
2013-05-24 07:58:00,61.2,57.3,28.48,NW,305,11.5,11.5,87,0.00,CLR,CLR,0.01,WeatherDisplay:10.37,2013-05-24 11:58:00,
2013-05-24 08:04:00,61.1,56.9,28.50,NW,323,6.9,6.9,86,0.00,CLR,CLR,0.01,WeatherDisplay:10.37,2013-05-24 12:04:00,
2013-05-24 08:09:00,61.0,56.1,28.49,NE,38,13.8,13.8,84,0.00,CLR,CLR,0.01,WeatherDisplay:10.37,2013-05-24 12:09:00,
2013-05-24 08:14:00,61.1,55.2,28.44,North,357,15.0,15.0,81,0.00,CLR,CLR,0.01,WeatherDisplay:10.37,2013-05-24 12:14:00,
2013-05-24 08:19:00,61.3,55.1,28.47,WSW,257,12.7,12.7,80,0.00,CLR,CLR,0.01,WeatherDisplay:10.37,2013-05-24 12:19:00,
2013-05-24 08:25:00,61.9,55.7,28.45,North,1,8.1,8.1,80,0.00,CLR,CLR,0.01,WeatherDisplay:10.37,2013-05-24 12:25:00,
2013-05-24 08:30:00,62.1,55.9,28.48,WNW,292,11.5,11.5,80,0.00,CLR,CLR,0.01,WeatherDisplay:10.37,2013-05-24 12:30:00,
2013-05-24 08:35:00,62.0,55.8,28.50,NNW,347,17.3,17.3,80,0.00,CLR,CLR,0.01,WeatherDisplay:10.37,2013-05-24 12:35:00,
2013-05-24 08:40:00,62.0,55.8,28.46,NNW,344,16.1,16.1,80,0.00,CLR,CLR,0.01,WeatherDisplay:10.37,2013-05-24 12:40:00,
2013-05-24 08:46:00,61.3,55.1,28.49,NNW,336,15.0,15.0,80,0.00,CLR,CLR,0.01,WeatherDisplay:10.37,2013-05-24 12:46:00,
2013-05-24 08:51:00,61.8,55.6,28.46,NW,321,18.4,18.4,80,0.00,CLR,CLR,0.01,WeatherDisplay:10.37,2013-05-24 12:51:00,
2013-05-24 08:56:00,61.4,55.2,28.46,NNW,333,19.6,19.6,80,0.00,CLR,CLR,0.01,WeatherDisplay:10.37,2013-05-24 12:56:00,
2013-05-24 09:01:00,61.1,54.9,28.49,NNW,333,17.3,17.3,80,0.00,CLR,CLR,0.01,WeatherDisplay:10.37,2013-05-24 13:01:00,
2013-05-24 09:06:00,60.7,54.5,28.53,West,267,16.1,16.1,80,0.00,CLR,CLR,0.01,WeatherDisplay:10.37,2013-05-24 13:06:00,
2013-05-24 09:11:00,60.0,53.8,28.53,WNW,299,12.7,12.7,80,0.00,CLR,CLR,0.01,WeatherDisplay:10.37,2013-05-24 13:11:00,
2013-05-24 09:16:00,60.2,54.0,28.55,NNW,339,6.9,6.9,80,0.00,CLR,CLR,0.01,WeatherDisplay:10.37,2013-05-24 13:16:00,
2013-05-24 09:21:00,60.2,54.0,28.49,North,350,11.5,11.5,80,0.00,CLR,CLR,0.01,WeatherDisplay:10.37,2013-05-24 13:21:00,
2013-05-24 09:27:00,60.9,54.7,28.48,WNW,298,9.2,9.2,80,0.00,CLR,CLR,0.01,WeatherDisplay:10.37,2013-05-24 13:27:00,
2013-05-24 09:32:00,61.8,55.6,28.48,NW,309,11.5,11.5,80,0.00,CLR,CLR,0.01,WeatherDisplay:10.37,2013-05-24 13:32:00,
2013-05-24 09:37:00,61.8,55.2,28.49,NW,308,11.5,11.5,79,0.00,CLR,CLR,0.01,WeatherDisplay:10.37,2013-05-24 13:37:00,
2013-05-24 09:43:00,62.0,55.8,28.48,NW,309,6.9,6.9,80,0.00,CLR,CLR,0.01,WeatherDisplay:10.37,2013-05-24 13:43:00,
2013-05-24 09:48:00,61.6,55.0,28.50,WSW,252,4.6,4.6,79,0.00,CLR,CLR,0.01,WeatherDisplay:10.37,2013-05-24 13:48:00,
2013-05-24 09:53:00,61.6,55.4,28.49,NNW,344,6.9,6.9,80,0.00,CLR,CLR,0.01,WeatherDisplay:10.37,2013-05-24 13:53:00,
2013-05-24 09:58:00,61.1,54.5,28.49,NW,325,6.0,6.0,79,0.00,CLR,CLR,0.01,WeatherDisplay:10.37,2013-05-24 13:58:00,
2013-05-24 10:03:00,60.1,53.6,28.53,NNW,334,8.1,8.1,79,0.00,CLR,CLR,0.01,WeatherDisplay:10.37,2013-05-24 14:03:00,
2013-05-24 10:09:00,59.5,53.0,28.56,WNW,292,10.4,10.4,79,0.00,CLR,CLR,0.01,WeatherDisplay:10.37,2013-05-24 14:09:00,
2013-05-24 10:14:00,59.6,53.4,28.56,NNE,33,10.4,10.4,80,0.00,CLR,CLR,0.01,WeatherDisplay:10.37,2013-05-24 14:14:00,
2013-05-24 10:19:00,60.4,53.9,28.52,NNW,335,12.7,12.7,79,0.00,CLR,CLR,0.01,WeatherDisplay:10.37,2013-05-24 14:19:00,
2013-05-24 10:24:00,60.7,53.8,28.55,WNW,299,11.5,11.5,78,0.00,CLR,CLR,0.01,WeatherDisplay:10.37,2013-05-24 14:24:00,
2013-05-24 10:29:00,61.7,54.4,28.55,North,8,10.4,10.4,77,0.00,CLR,CLR,0.01,WeatherDisplay:10.37,2013-05-24 14:29:00,
2013-05-24 10:35:00,61.6,53.6,28.58,NNW,333,13.8,13.8,75,0.00,CLR,CLR,0.01,WeatherDisplay:10.37,2013-05-24 14:35:00,
2013-05-24 10:40:00,61.5,53.1,28.58,NNW,333,18.4,18.4,74,0.00,CLR,CLR,0.01,WeatherDisplay:10.37,2013-05-24 14:40:00,
2013-05-24 10:45:00,61.1,54.2,28.59,North,0,8.1,8.1,78,0.00,CLR,CLR,0.01,WeatherDisplay:10.37,2013-05-24 14:45:00,
2013-05-24 10:50:00,60.7,52.0,28.57,NNW,347,16.1,16.1,73,0.00,CLR,CLR,0.01,WeatherDisplay:10.37,2013-05-24 14:50:00,
2013-05-24 10:56:00,60.3,52.0,28.54,NNW,331,16.1,16.1,74,0.00,CLR,CLR,0.01,WeatherDisplay:10.37,2013-05-24 14:56:00,
2013-05-24 11:01:00,60.4,52.1,28.61,NW,316,19.6,19.6,74,0.00,CLR,CLR,0.01,WeatherDisplay:10.37,2013-05-24 15:01:00,
2013-05-24 11:06:00,60.3,50.5,28.61,NW,309,19.6,19.6,70,0.00,CLR,CLR,0.01,WeatherDisplay:10.37,2013-05-24 15:06:00,
2013-05-24 11:11:00,59.4,50.7,28.58,NW,325,11.5,11.5,73,0.00,CLR,CLR,0.01,WeatherDisplay:10.37,2013-05-24 15:11:00,
2013-05-24 11:16:00,59.6,52.0,28.61,North,350,9.2,9.2,76,0.00,CLR,CLR,0.01,WeatherDisplay:10.37,2013-05-24 15:16:00,
2013-05-24 11:22:00,60.0,50.6,28.63,NW,306,16.1,16.1,71,0.00,CLR,CLR,0.01,WeatherDisplay:10.37,2013-05-24 15:22:00,
2013-05-24 11:27:00,59.9,50.8,28.66,North,350,13.8,13.8,72,0.00,CLR,CLR,0.01,WeatherDisplay:10.37,2013-05-24 15:27:00,
2013-05-24 11:32:00,60.0,51.7,28.61,North,0,10.4,10.4,74,0.00,CLR,CLR,0.01,WeatherDisplay:10.37,2013-05-24 15:32:00,
2013-05-24 11:37:00,60.6,51.9,28.60,SW,231,12.7,12.7,73,0.00,CLR,CLR,0.01,WeatherDisplay:10.37,2013-05-24 15:37:00,
2013-05-24 11:42:00,60.2,51.9,28.62,NW,304,9.2,9.2,74,0.00,CLR,CLR,0.01,WeatherDisplay:10.37,2013-05-24 15:42:00,
2013-05-24 11:48:00,60.7,52.0,28.66,North,359,10.0,10.0,73,0.00,CLR,CLR,0.01,WeatherDisplay:10.37,2013-05-24 15:48:00,
2013-05-24 11:53:00,61.1,52.0,28.65,NNW,339,11.5,11.5,72,0.00,CLR,CLR,0.01,WeatherDisplay:10.37,2013-05-24 15:53:00,
2013-05-24 11:58:00,61.3,51.8,28.64,North,355,12.0,12.0,71,0.00,CLR,CLR,0.01,WeatherDisplay:10.37,2013-05-24 15:58:00,
2013-05-24 12:03:00,61.3,51.8,28.67,NW,308,12.0,12.0,71,0.00,CLR,CLR,0.01,WeatherDisplay:10.37,2013-05-24 16:03:00,
2013-05-24 12:08:00,61.0,50.8,28.64,NW,305,12.7,12.7,69,0.00,CLR,CLR,0.01,WeatherDisplay:10.37,2013-05-24 16:08:00,
2013-05-24 12:14:00,61.5,52.0,28.65,NNE,12,11.5,11.5,71,0.00,CLR,CLR,0.01,WeatherDisplay:10.37,2013-05-24 16:14:00,
2013-05-24 12:19:00,61.4,50.7,28.68,North,7,9.2,9.2,68,0.00,CLR,CLR,0.01,WeatherDisplay:10.37,2013-05-24 16:19:00,
2013-05-24 12:24:00,61.8,51.1,28.71,NNW,348,15.0,15.0,68,0.00,CLR,CLR,0.01,WeatherDisplay:10.37,2013-05-24 16:24:00,
2013-05-24 12:29:00,62.0,53.2,28.68,NNW,329,9.2,9.2,73,0.00,CLR,CLR,0.01,WeatherDisplay:10.37,2013-05-24 16:29:00,
2013-05-24 12:35:00,62.5,51.4,28.62,NW,315,15.0,15.0,67,0.00,CLR,CLR,0.01,WeatherDisplay:10.37,2013-05-24 16:35:00,
2013-05-24 12:40:00,62.0,50.1,28.67,NNW,338,15.0,15.0,65,0.00,CLR,CLR,0.01,WeatherDisplay:10.37,2013-05-24 16:40:00,
2013-05-24 12:45:00,61.7,51.4,28.63,WSW,254,6.9,6.9,69,0.00,CLR,CLR,0.01,WeatherDisplay:10.37,2013-05-24 16:45:00,
2013-05-24 12:50:00,62.3,50.4,28.60,SW,233,17.3,17.3,65,0.00,CLR,CLR,0.01,WeatherDisplay:10.37,2013-05-24 16:50:00,
2013-05-24 12:55:00,61.5,48.8,28.68,NNE,21,18.4,18.4,63,0.00,CLR,CLR,0.01,WeatherDisplay:10.37,2013-05-24 16:55:00,
2013-05-24 13:00:00,60.8,49.0,28.62,NNW,339,17.3,17.3,65,0.00,CLR,CLR,0.01,WeatherDisplay:10.37,2013-05-24 17:00:00,
2013-05-24 13:05:00,60.3,48.5,28.68,North,358,13.0,13.0,65,0.00,CLR,CLR,0.01,WeatherDisplay:10.37,2013-05-24 17:05:00,
2013-05-24 13:10:00,59.6,47.8,28.60,NW,323,15.0,15.0,65,0.00,CLR,CLR,0.01,WeatherDisplay:10.37,2013-05-24 17:10:00,
2013-05-24 13:16:00,60.3,50.1,28.64,NNW,335,8.1,8.1,69,0.00,CLR,CLR,0.01,WeatherDisplay:10.37,2013-05-24 17:16:00,
2013-05-24 13:21:00,60.2,48.4,28.63,NW,319,11.5,11.5,65,0.00,CLR,CLR,0.01,WeatherDisplay:10.37,2013-05-24 17:21:00,
2013-05-24 13:26:00,60.1,48.7,28.63,NNW,344,11.5,11.5,66,0.00,CLR,CLR,0.01,WeatherDisplay:10.37,2013-05-24 17:26:00,
2013-05-24 13:31:00,60.7,49.3,28.65,NNW,333,16.1,16.1,66,0.00,CLR,CLR,0.01,WeatherDisplay:10.37,2013-05-24 17:31:00,
2013-05-24 13:36:00,60.8,49.4,28.62,NNW,339,11.5,11.5,66,0.00,CLR,CLR,0.01,WeatherDisplay:10.37,2013-05-24 17:36:00,
2013-05-24 13:42:00,60.3,48.1,28.64,NW,322,19.6,19.6,64,0.00,CLR,CLR,0.01,WeatherDisplay:10.37,2013-05-24 17:42:00,
2013-05-24 13:47:00,60.6,49.6,28.65,NNE,20,8.1,8.1,67,0.00,CLR,CLR,0.01,WeatherDisplay:10.37,2013-05-24 17:47:00,
2013-05-24 13:52:00,60.7,48.4,28.65,NNW,348,17.3,17.3,64,0.00,CLR,CLR,0.01,WeatherDisplay:10.37,2013-05-24 17:52:00,
2013-05-24 13:58:00,61.1,50.1,28.64,NNW,342,10.4,10.4,67,0.00,CLR,CLR,0.01,WeatherDisplay:10.37,2013-05-24 17:58:00,
2013-05-24 14:03:00,61.4,48.7,28.63,NW,324,11.5,11.5,63,0.00,CLR,CLR,0.01,WeatherDisplay:10.37,2013-05-24 18:03:00,
2013-05-24 14:08:00,61.8,49.5,28.65,North,351,18.4,18.4,64,0.00,CLR,CLR,0.01,WeatherDisplay:10.37,2013-05-24 18:08:00,
2013-05-24 14:13:00,61.6,47.1,28.66,North,355,23.0,23.0,59,0.00,CLR,CLR,0.01,WeatherDisplay:10.37,2013-05-24 18:13:00,
2013-05-24 14:18:00,61.5,49.6,28.62,North,351,15.0,15.0,65,0.00,CLR,CLR,0.01,WeatherDisplay:10.37,2013-05-24 18:18:00,
2013-05-24 14:24:00,61.4,48.7,28.71,NW,317,18.4,18.4,63,0.00,CLR,CLR,0.01,WeatherDisplay:10.37,2013-05-24 18:24:00,
2013-05-24 14:29:00,61.0,48.3,28.69,NNW,334,19.6,19.6,63,0.00,CLR,CLR,0.01,WeatherDisplay:10.37,2013-05-24 18:29:00,
2013-05-24 14:34:00,61.1,48.8,28.67,WNW,301,12.0,12.0,64,0.00,CLR,CLR,0.01,WeatherDisplay:10.37,2013-05-24 18:34:00,
2013-05-24 14:39:00,61.4,49.1,28.68,North,9,12.7,12.7,64,0.00,CLR,CLR,0.01,WeatherDisplay:10.37,2013-05-24 18:39:00,
2013-05-24 14:44:00,61.6,47.6,28.69,West,274,11.5,11.5,60,0.00,CLR,CLR,0.01,WeatherDisplay:10.37,2013-05-24 18:44:00,
2013-05-24 14:49:00,61.9,49.6,28.63,NNW,334,12.7,12.7,64,0.00,CLR,CLR,0.01,WeatherDisplay:10.37,2013-05-24 18:49:00,
2013-05-24 14:54:00,61.7,48.5,28.68,NW,324,10.4,10.4,62,0.00,CLR,CLR,0.01,WeatherDisplay:10.37,2013-05-24 18:54:00,
2013-05-24 14:59:00,61.1,48.0,28.66,NNW,339,14.0,14.0,62,0.00,CLR,CLR,0.01,WeatherDisplay:10.37,2013-05-24 18:59:00,
2013-05-24 15:05:00,60.8,48.1,28.68,North,7,11.5,11.5,63,0.00,CLR,CLR,0.01,WeatherDisplay:10.37,2013-05-24 19:05:00,
2013-05-24 15:10:00,60.8,48.5,28.67,North,0,14.0,14.0,64,0.00,CLR,CLR,0.01,WeatherDisplay:10.37,2013-05-24 19:10:00,
2013-05-24 15:15:00,60.8,47.7,28.68,North,358,17.3,17.3,62,0.00,CLR,CLR,0.01,WeatherDisplay:10.37,2013-05-24 19:15:00,
2013-05-24 15:20:00,61.1,47.5,28.68,NW,305,10.0,10.0,61,0.00,CLR,CLR,0.01,WeatherDisplay:10.37,2013-05-24 19:20:00,
2013-05-24 15:25:00,61.6,48.9,28.69,West,279,8.1,8.1,63,0.00,CLR,CLR,0.01,WeatherDisplay:10.37,2013-05-24 19:25:00,
2013-05-24 15:30:00,61.8,47.8,28.68,NNE,24,23.0,23.0,60,0.00,CLR,CLR,0.01,WeatherDisplay:10.37,2013-05-24 19:30:00,
2013-05-24 15:36:00,62.0,48.0,28.65,NNW,327,13.8,13.8,60,0.00,CLR,CLR,0.01,WeatherDisplay:10.37,2013-05-24 19:36:00,
2013-05-24 15:41:00,61.7,45.8,28.70,WNW,282,20.7,20.7,56,0.00,CLR,CLR,0.01,WeatherDisplay:10.37,2013-05-24 19:41:00,
2013-05-24 15:46:00,61.7,46.3,28.64,NW,321,12.0,12.0,57,0.00,CLR,CLR,0.01,WeatherDisplay:10.37,2013-05-24 19:46:00,
2013-05-24 15:52:00,61.5,47.0,28.66,West,261,12.7,12.7,59,0.00,CLR,CLR,0.01,WeatherDisplay:10.37,2013-05-24 19:52:00,
2013-05-24 15:57:00,61.8,46.4,28.63,NW,316,11.5,11.5,57,0.00,CLR,CLR,0.01,WeatherDisplay:10.37,2013-05-24 19:57:00,
2013-05-24 16:02:00,61.7,47.2,28.66,West,264,14.0,14.0,59,0.00,CLR,CLR,0.01,WeatherDisplay:10.37,2013-05-24 20:02:00,
2013-05-24 16:07:00,61.8,46.9,28.58,NW,308,11.5,11.5,58,0.00,CLR,CLR,0.01,WeatherDisplay:10.37,2013-05-24 20:07:00,
2013-05-24 16:12:00,61.8,46.4,28.63,NW,326,16.1,16.1,57,0.00,CLR,CLR,0.01,WeatherDisplay:10.37,2013-05-24 20:12:00,
2013-05-24 16:17:00,61.8,46.9,28.67,NNW,335,18.4,18.4,58,0.00,CLR,CLR,0.01,WeatherDisplay:10.37,2013-05-24 20:17:00,
2013-05-24 16:22:00,61.8,46.9,28.58,NNW,333,12.7,12.7,58,0.00,CLR,CLR,0.01,WeatherDisplay:10.37,2013-05-24 20:22:00,
2013-05-24 16:27:00,62.0,47.5,28.73,NW,307,12.7,12.7,59,0.00,CLR,CLR,0.01,WeatherDisplay:10.37,2013-05-24 20:27:00,
2013-05-24 16:32:00,62.1,46.7,28.64,NNW,340,14.0,14.0,57,0.00,CLR,CLR,0.01,WeatherDisplay:10.37,2013-05-24 20:32:00,
2013-05-24 16:37:00,61.9,45.5,28.66,North,0,10.4,10.4,55,0.00,CLR,CLR,0.01,WeatherDisplay:10.37,2013-05-24 20:37:00,
2013-05-24 16:42:00,61.9,45.1,28.68,NW,312,16.1,16.1,54,0.00,CLR,CLR,0.01,WeatherDisplay:10.37,2013-05-24 20:42:00,
2013-05-24 16:48:00,61.5,44.7,28.65,North,11,12.7,12.7,54,0.00,CLR,CLR,0.01,WeatherDisplay:10.37,2013-05-24 20:48:00,
2013-05-24 16:53:00,61.5,45.7,28.69,North,5,15.0,15.0,56,0.00,CLR,CLR,0.01,WeatherDisplay:10.37,2013-05-24 20:53:00,
2013-05-24 16:58:00,61.3,44.5,28.68,North,349,22.0,22.0,54,0.00,CLR,CLR,0.01,WeatherDisplay:10.37,2013-05-24 20:58:00,
2013-05-24 17:03:00,61.1,42.8,28.67,NNW,329,21.9,21.9,51,0.00,CLR,CLR,0.01,WeatherDisplay:10.37,2013-05-24 21:03:00,
2013-05-24 17:08:00,61.1,44.3,28.71,North,357,12.0,12.0,54,0.00,CLR,CLR,0.01,WeatherDisplay:10.37,2013-05-24 21:08:00,
2013-05-24 17:13:00,61.3,44.5,28.60,West,261,18.4,18.4,54,0.00,CLR,CLR,0.01,WeatherDisplay:10.37,2013-05-24 21:13:00,
2013-05-24 17:19:00,61.5,44.7,28.61,NW,319,11.5,11.5,54,0.00,CLR,CLR,0.01,WeatherDisplay:10.37,2013-05-24 21:19:00,
2013-05-24 17:24:00,61.5,44.7,28.63,North,356,18.4,18.4,54,0.00,CLR,CLR,0.01,WeatherDisplay:10.37,2013-05-24 21:24:00,
2013-05-24 17:29:00,61.3,43.5,28.56,NW,326,11.5,11.5,52,0.00,CLR,CLR,0.01,WeatherDisplay:10.37,2013-05-24 21:29:00,
2013-05-24 17:34:00,61.2,43.4,28.69,North,351,19.6,19.6,52,0.00,CLR,CLR,0.01,WeatherDisplay:10.37,2013-05-24 21:34:00,
2013-05-24 17:39:00,61.2,43.4,28.69,North,352,11.5,11.5,52,0.00,CLR,CLR,0.01,WeatherDisplay:10.37,2013-05-24 21:39:00,
2013-05-24 17:44:00,61.1,43.3,28.68,North,349,17.3,17.3,52,0.00,CLR,CLR,0.01,WeatherDisplay:10.37,2013-05-24 21:44:00,
2013-05-24 17:50:00,61.1,43.3,28.63,NNW,348,11.5,11.5,52,0.00,CLR,CLR,0.01,WeatherDisplay:10.37,2013-05-24 21:50:00,
2013-05-24 17:55:00,60.9,43.1,28.66,North,350,18.4,18.4,52,0.00,CLR,CLR,0.01,WeatherDisplay:10.37,2013-05-24 21:55:00,
2013-05-24 18:00:00,60.9,43.1,28.68,NW,319,12.7,12.7,52,0.00,CLR,CLR,0.01,WeatherDisplay:10.37,2013-05-24 22:00:00,
2013-05-24 18:05:00,60.8,44.0,28.53,NE,35,8.1,8.1,54,0.00,CLR,CLR,0.01,WeatherDisplay:10.37,2013-05-24 22:05:00,
2013-05-24 18:11:00,60.7,43.9,28.53,North,354,11.5,11.5,54,0.00,CLR,CLR,0.01,WeatherDisplay:10.37,2013-05-24 22:11:00,
2013-05-24 18:16:00,60.6,43.4,28.54,NW,325,13.8,13.8,53,0.00,CLR,CLR,0.01,WeatherDisplay:10.37,2013-05-24 22:16:00,
2013-05-24 18:21:00,60.5,43.3,28.54,NW,326,18.4,18.4,53,0.00,CLR,CLR,0.01,WeatherDisplay:10.37,2013-05-24 22:21:00,
2013-05-24 18:26:00,60.4,42.2,28.54,WNW,301,19.6,19.6,51,0.00,CLR,CLR,0.01,WeatherDisplay:10.37,2013-05-24 22:26:00,
2013-05-24 18:31:00,60.3,42.6,28.53,NNW,331,17.3,17.3,52,0.00,CLR,CLR,0.01,WeatherDisplay:10.37,2013-05-24 22:31:00,
2013-05-24 18:37:00,60.1,41.9,28.54,NW,324,15.0,15.0,51,0.00,CLR,CLR,0.01,WeatherDisplay:10.37,2013-05-24 22:37:00,
2013-05-24 18:42:00,59.9,42.2,28.54,NW,325,17.3,17.3,52,0.00,CLR,CLR,0.01,WeatherDisplay:10.37,2013-05-24 22:42:00,
2013-05-24 18:47:00,59.8,42.1,28.54,North,5,11.5,11.5,52,0.00,CLR,CLR,0.01,WeatherDisplay:10.37,2013-05-24 22:47:00,
2013-05-24 18:52:00,59.7,41.0,28.54,NW,325,19.6,19.6,50,0.00,CLR,CLR,0.01,WeatherDisplay:10.37,2013-05-24 22:52:00,
2013-05-24 18:57:00,59.5,40.8,28.54,NW,326,18.4,18.4,50,0.00,CLR,CLR,0.01,WeatherDisplay:10.37,2013-05-24 22:57:00,
2013-05-24 19:03:00,59.4,41.8,28.55,NNW,331,12.0,12.0,52,0.00,CLR,CLR,0.01,WeatherDisplay:10.37,2013-05-24 23:03:00,
2013-05-24 19:08:00,59.2,40.6,28.55,NNW,332,15.0,15.0,50,0.00,CLR,CLR,0.01,WeatherDisplay:10.37,2013-05-24 23:08:00,
2013-05-24 19:13:00,59.0,41.4,28.55,NNW,337,17.3,17.3,52,0.00,CLR,CLR,0.01,WeatherDisplay:10.37,2013-05-24 23:13:00,
2013-05-24 19:18:00,58.8,41.7,28.55,NNW,338,10.4,10.4,53,0.00,CLR,CLR,0.01,WeatherDisplay:10.37,2013-05-24 23:18:00,
2013-05-24 19:23:00,58.7,41.6,28.55,NNW,333,11.5,11.5,53,0.00,CLR,CLR,0.01,WeatherDisplay:10.37,2013-05-24 23:23:00,
2013-05-24 19:29:00,58.5,41.9,28.56,North,359,10.4,10.4,54,0.00,CLR,CLR,0.01,WeatherDisplay:10.37,2013-05-24 23:29:00,
2013-05-24 19:34:00,58.3,41.2,28.56,West,278,13.0,13.0,53,0.00,CLR,CLR,0.01,WeatherDisplay:10.37,2013-05-24 23:34:00,
2013-05-24 19:39:00,58.1,41.5,28.56,North,9,9.2,9.2,54,0.00,CLR,CLR,0.01,WeatherDisplay:10.37,2013-05-24 23:39:00,
2013-05-24 19:45:00,57.9,42.3,28.56,North,354,13.0,13.0,56,0.00,CLR,CLR,0.01,WeatherDisplay:10.37,2013-05-24 23:45:00,
2013-05-24 19:50:00,57.6,41.1,28.56,North,6,6.9,6.9,54,0.00,CLR,CLR,0.01,WeatherDisplay:10.37,2013-05-24 23:50:00,
2013-05-24 19:55:00,57.5,41.4,28.56,NW,319,16.1,16.1,55,0.00,CLR,CLR,0.01,WeatherDisplay:10.37,2013-05-24 23:55:00,
2013-05-24 20:00:00,57.3,41.3,28.56,North,349,15.0,15.0,55,0.00,CLR,CLR,0.01,WeatherDisplay:10.37,2013-05-25 00:00:00,
2013-05-24 20:06:00,57.2,41.2,28.57,NNW,328,15.0,15.0,55,0.00,CLR,CLR,0.01,WeatherDisplay:10.37,2013-05-25 00:06:00,
2013-05-24 20:11:00,57.0,41.4,28.57,North,8,11.5,11.5,56,0.00,CLR,CLR,0.01,WeatherDisplay:10.37,2013-05-25 00:11:00,
2013-05-24 20:16:00,56.7,41.2,28.57,WNW,296,3.5,3.5,56,0.00,CLR,CLR,0.01,WeatherDisplay:10.37,2013-05-25 00:16:00,
2013-05-24 20:21:00,56.4,41.3,28.57,WNW,299,6.9,6.9,57,0.00,CLR,CLR,0.01,WeatherDisplay:10.37,2013-05-25 00:21:00,
2013-05-24 20:26:00,56.1,41.5,28.57,NW,315,3.5,3.5,58,0.00,CLR,CLR,0.01,WeatherDisplay:10.37,2013-05-25 00:26:00,
2013-05-24 20:31:00,55.8,41.2,28.58,NNW,330,9.2,9.2,58,0.00,CLR,CLR,0.01,WeatherDisplay:10.37,2013-05-25 00:31:00,
2013-05-24 20:36:00,55.6,41.0,28.58,WNW,291,15.0,15.0,58,0.00,CLR,CLR,0.01,WeatherDisplay:10.37,2013-05-25 00:36:00,
2013-05-24 20:41:00,55.5,41.0,28.58,North,11,11.5,11.5,58,0.00,CLR,CLR,0.01,WeatherDisplay:10.37,2013-05-25 00:41:00,
2013-05-24 20:47:00,55.3,40.8,28.58,NNW,343,3.5,4.6,58,0.00,CLR,CLR,0.01,WeatherDisplay:10.37,2013-05-25 00:47:00,
2013-05-24 20:52:00,55.1,41.0,28.59,NW,326,3.5,3.5,59,0.00,CLR,CLR,0.01,WeatherDisplay:10.37,2013-05-25 00:52:00,
2013-05-24 20:57:00,54.9,40.8,28.59,NNW,337,9.2,9.2,59,0.00,CLR,CLR,0.01,WeatherDisplay:10.37,2013-05-25 00:57:00,
2013-05-24 21:02:00,54.8,40.7,28.59,NE,36,8.1,8.1,59,0.00,CLR,CLR,0.01,WeatherDisplay:10.37,2013-05-25 01:02:00,
2013-05-24 21:07:00,54.8,40.7,28.59,WNW,299,6.9,6.9,59,0.00,CLR,CLR,0.01,WeatherDisplay:10.37,2013-05-25 01:07:00,
2013-05-24 21:12:00,54.6,41.0,28.60,NW,312,7.0,7.0,60,0.00,CLR,CLR,0.01,WeatherDisplay:10.37,2013-05-25 01:12:00,
2013-05-24 21:18:00,54.2,40.6,28.59,NW,304,5.0,5.0,60,0.00,CLR,CLR,0.01,WeatherDisplay:10.37,2013-05-25 01:18:00,
2013-05-24 21:23:00,54.0,40.4,28.60,NW,306,7.0,7.0,60,0.00,CLR,CLR,0.01,WeatherDisplay:10.37,2013-05-25 01:23:00,
2013-05-24 21:28:00,53.9,40.3,28.60,NW,316,7.0,7.0,60,0.00,CLR,CLR,0.01,WeatherDisplay:10.37,2013-05-25 01:28:00,
2013-05-24 21:33:00,53.9,40.3,28.60,NNW,344,11.5,11.5,60,0.00,CLR,CLR,0.01,WeatherDisplay:10.37,2013-05-25 01:33:00,
2013-05-24 21:38:00,53.8,40.7,28.60,NW,321,17.3,17.3,61,0.00,CLR,CLR,0.01,WeatherDisplay:10.37,2013-05-25 01:38:00,
2013-05-24 21:43:00,53.7,40.6,28.61,WNW,285,5.8,5.8,61,0.00,CLR,CLR,0.01,WeatherDisplay:10.37,2013-05-25 01:43:00,
2013-05-24 21:48:00,53.5,40.8,28.61,WNW,301,6.9,6.9,62,0.00,CLR,CLR,0.01,WeatherDisplay:10.37,2013-05-25 01:48:00,
2013-05-24 21:54:00,53.3,41.0,28.61,West,263,4.0,4.0,63,0.00,CLR,CLR,0.01,WeatherDisplay:10.37,2013-05-25 01:54:00,
2013-05-24 21:59:00,53.1,41.2,28.61,SSW,209,8.1,8.1,64,0.00,CLR,CLR,0.01,WeatherDisplay:10.37,2013-05-25 01:59:00,
2013-05-24 22:04:00,52.9,41.0,28.62,SW,221,4.6,4.6,64,0.00,CLR,CLR,0.01,WeatherDisplay:10.37,2013-05-25 02:04:00,
2013-05-24 22:09:00,52.7,40.5,28.62,SW,220,3.5,3.5,63,0.00,CLR,CLR,0.01,WeatherDisplay:10.37,2013-05-25 02:09:00,
2013-05-24 22:14:00,52.5,40.3,28.62,WNW,299,6.9,6.9,63,0.00,CLR,CLR,0.01,WeatherDisplay:10.37,2013-05-25 02:14:00,
2013-05-24 22:20:00,52.4,40.6,28.62,NW,312,3.5,3.8,64,0.00,CLR,CLR,0.01,WeatherDisplay:10.37,2013-05-25 02:20:00,
2013-05-24 22:25:00,52.2,40.0,28.62,WSW,245,3.5,3.5,63,0.00,CLR,CLR,0.01,WeatherDisplay:10.37,2013-05-25 02:25:00,
2013-05-24 22:30:00,52.1,40.3,28.63,NW,306,5.8,5.8,64,0.00,CLR,CLR,0.01,WeatherDisplay:10.37,2013-05-25 02:30:00,
2013-05-24 22:35:00,52.0,40.6,28.63,WSW,256,4.6,4.6,65,0.00,CLR,CLR,0.01,WeatherDisplay:10.37,2013-05-25 02:35:00,
2013-05-24 22:40:00,52.0,40.6,28.63,NW,317,6.0,6.0,65,0.00,CLR,CLR,0.01,WeatherDisplay:10.37,2013-05-25 02:40:00,
2013-05-24 22:45:00,52.0,41.0,28.63,WNW,296,10.4,10.4,66,0.00,CLR,CLR,0.01,WeatherDisplay:10.37,2013-05-25 02:45:00,
2013-05-24 22:51:00,51.9,41.3,28.63,WNW,299,6.0,6.0,67,0.00,CLR,CLR,0.01,WeatherDisplay:10.37,2013-05-25 02:51:00,
2013-05-24 22:56:00,51.7,41.1,28.62,West,270,10.4,10.4,67,0.00,CLR,CLR,0.01,WeatherDisplay:10.37,2013-05-25 02:56:00,
2013-05-24 23:01:00,51.7,40.7,28.63,NNW,328,11.5,11.5,66,0.00,CLR,CLR,0.01,WeatherDisplay:10.37,2013-05-25 03:01:00,
2013-05-24 23:06:00,51.6,40.6,28.62,NW,321,8.1,8.1,66,0.00,CLR,CLR,0.01,WeatherDisplay:10.37,2013-05-25 03:06:00,
2013-05-24 23:11:00,51.3,40.7,28.62,NNW,330,12.0,12.0,67,0.00,CLR,CLR,0.01,WeatherDisplay:10.37,2013-05-25 03:11:00,
2013-05-24 23:17:00,51.5,40.5,28.62,NW,318,9.2,9.2,66,0.00,CLR,CLR,0.01,WeatherDisplay:10.37,2013-05-25 03:17:00,
2013-05-24 23:22:00,51.4,40.4,28.61,NNW,337,10.4,10.4,66,0.00,CLR,CLR,0.01,WeatherDisplay:10.37,2013-05-25 03:22:00,
2013-05-24 23:27:00,51.2,40.2,28.61,NNW,327,11.5,11.5,66,0.00,CLR,CLR,0.01,WeatherDisplay:10.37,2013-05-25 03:27:00,
2013-05-24 23:32:00,51.3,40.7,28.62,WNW,301,11.5,11.5,67,0.00,CLR,CLR,0.01,WeatherDisplay:10.37,2013-05-25 03:32:00,
2013-05-24 23:37:00,51.1,40.9,28.61,NW,317,8.1,8.1,68,0.00,CLR,CLR,0.01,WeatherDisplay:10.37,2013-05-25 03:37:00,
2013-05-24 23:42:00,50.9,40.7,28.61,NW,313,11.5,11.5,68,0.00,CLR,CLR,0.01,WeatherDisplay:10.37,2013-05-25 03:42:00,
2013-05-24 23:48:00,50.7,40.9,28.61,NNW,331,13.0,13.0,69,0.00,CLR,CLR,0.01,WeatherDisplay:10.37,2013-05-25 03:48:00,
2013-05-24 23:53:00,50.6,40.8,28.61,NW,323,12.7,12.7,69,0.00,CLR,CLR,0.01,WeatherDisplay:10.37,2013-05-25 03:53:00,
2013-05-24 23:58:00,50.6,40.8,28.61,North,350,12.7,12.7,69,0.00,CLR,CLR,0.01,WeatherDisplay:10.37,2013-05-25 03:58:00,